UAL2613 KDEN-KEWR

Flight info

Callsign UAL2613
Flight time 2h 47m
Altitude 37000
Route EPKEE7 GAETR HYS KK54C TOP KK57I SPI WWODD RINTE KLYNE Q29 WWSHR DORET J584 SLT FQM3
Aircraft A320/M-SDE3FGHIRWY/LB1

Departure

Time 2026-05-06 22:52
Airport Denver International Airport (KDEN)

Arrival

Time 2026-05-07 01:39
Airport Newark Liberty International Airport (KEWR)
Time Latitude Longitude Altitude Speed Heading
2026-05-06 22:30 39.85935 -104.67659 5380 ft 0 kts 180°
2026-05-06 22:41 39.85955 -104.67659 5378 ft 4 kts 180°
2026-05-06 22:41 39.85982 -104.67659 5376 ft 4 kts 180°
2026-05-06 22:42 39.86007 -104.67660 5375 ft 2 kts 180°
2026-05-06 22:42 39.86009 -104.67660 5380 ft 0 kts 180°
2026-05-06 22:45 39.86005 -104.67663 5380 ft 2 kts 209°
2026-05-06 22:45 39.85999 -104.67621 5379 ft 8 kts 78°
2026-05-06 22:45 39.86039 -104.67537 5376 ft 12 kts 70°
2026-05-06 22:46 39.86015 -104.67414 5379 ft 16 kts 101°
2026-05-06 22:46 39.86011 -104.67266 5379 ft 17 kts 90°
2026-05-06 22:46 39.86010 -104.67105 5376 ft 19 kts 91°
2026-05-06 22:46 39.86022 -104.66939 5376 ft 18 kts 56°
2026-05-06 22:47 39.86061 -104.66786 5378 ft 19 kts 90°
2026-05-06 22:47 39.86061 -104.66617 5375 ft 11 kts 92°
2026-05-06 22:47 39.86090 -104.66521 5377 ft 16 kts 49°
2026-05-06 22:47 39.86105 -104.66382 5377 ft 15 kts 89°
2026-05-06 22:48 39.86118 -104.66257 5384 ft 14 kts 47°
2026-05-06 22:48 39.86249 -104.66228 5382 ft 22 kts
2026-05-06 22:48 39.86406 -104.66226 5382 ft 23 kts
2026-05-06 22:48 39.86575 -104.66224 5378 ft 25 kts
2026-05-06 22:49 39.86760 -104.66222 5374 ft 28 kts
2026-05-06 22:49 39.86967 -104.66220 5367 ft 31 kts
2026-05-06 22:49 39.87189 -104.66217 5363 ft 34 kts 360°
2026-05-06 22:49 39.87348 -104.66213 5361 ft 19 kts
2026-05-06 22:50 39.87492 -104.66212 5359 ft 22 kts
2026-05-06 22:50 39.87535 -104.66210 5361 ft 0 kts 359°
2026-05-06 22:50 39.87541 -104.66211 5360 ft 2 kts 359°
2026-05-06 22:50 39.87559 -104.66211 5362 ft 3 kts 358°
2026-05-06 22:51 39.87615 -104.66212 5361 ft 12 kts 359°
2026-05-06 22:51 39.87714 -104.66212 5362 ft 16 kts 360°
2026-05-06 22:51 39.87754 -104.66081 5359 ft 25 kts 92°
2026-05-06 22:51 39.87750 -104.65531 5353 ft 95 kts 90°
2026-05-06 22:52 39.87743 -104.64427 5338 ft 150 kts 90°
2026-05-06 22:52 39.87736 -104.62906 5533 ft 176 kts 91°
2026-05-06 22:52 39.87677 -104.61307 6208 ft 177 kts 90°
2026-05-06 22:52 39.87606 -104.59708 6872 ft 177 kts 101°
2026-05-06 22:53 39.87201 -104.58142 7193 ft 193 kts 111°
2026-05-06 22:53 39.86653 -104.56439 7385 ft 216 kts 112°
2026-05-06 22:53 39.86035 -104.54556 7626 ft 235 kts 112°
2026-05-06 22:53 39.85361 -104.52510 7981 ft 254 kts 113°
2026-05-06 22:54 39.84633 -104.50301 8378 ft 275 kts 113°
2026-05-06 22:54 39.83876 -104.48001 9047 ft 283 kts 113°
2026-05-06 22:54 39.83095 -104.45634 9806 ft 287 kts 113°
2026-05-06 22:54 39.82293 -104.43212 10302 ft 301 kts 112°
2026-05-06 22:55 39.81436 -104.40616 10526 ft 324 kts 112°
2026-05-06 22:55 39.80513 -104.37830 10666 ft 347 kts 113°
2026-05-06 22:55 39.79505 -104.34872 10809 ft 369 kts 114°
2026-05-06 22:55 39.78419 -104.31753 10930 ft 388 kts 115°
2026-05-06 22:56 39.77278 -104.28500 11265 ft 400 kts 115°
2026-05-06 22:56 39.76109 -104.25188 11803 ft 406 kts 115°
2026-05-06 22:56 39.74941 -104.21877 12362 ft 410 kts 115°
2026-05-06 22:56 39.73753 -104.18484 12921 ft 415 kts 115°
2026-05-06 22:57 39.72554 -104.15045 13457 ft 420 kts 115°
2026-05-06 22:57 39.71341 -104.11566 14012 ft 425 kts 115°
2026-05-06 22:57 39.70107 -104.08052 14517 ft 430 kts 115°
2026-05-06 22:57 39.68851 -104.04509 15014 ft 435 kts 116°
2026-05-06 22:58 39.67574 -104.00933 15470 ft 439 kts 116°
2026-05-06 22:58 39.66282 -103.97318 15908 ft 443 kts 116°
2026-05-06 22:58 39.64965 -103.93678 16351 ft 448 kts 117°
2026-05-06 22:58 39.63578 -103.90101 16780 ft 452 kts 119°
2026-05-06 22:59 39.62094 -103.86493 17207 ft 455 kts 120°
2026-05-06 22:59 39.60566 -103.82879 17615 ft 459 kts 121°
2026-05-06 22:59 39.59106 -103.79171 18000 ft 465 kts 115°
2026-05-06 22:59 39.57937 -103.75239 18395 ft 469 kts 112°
2026-05-06 23:00 39.56800 -103.71258 18790 ft 473 kts 112°
2026-05-06 23:00 39.55669 -103.67244 19201 ft 476 kts 111°
2026-05-06 23:00 39.54537 -103.63202 19583 ft 479 kts 111°
2026-05-06 23:00 39.53396 -103.59139 19963 ft 482 kts 112°
2026-05-06 23:01 39.52257 -103.55098 20328 ft 485 kts 112°
2026-05-06 23:01 39.51093 -103.50992 20664 ft 488 kts 112°
2026-05-06 23:01 39.49915 -103.46858 20980 ft 490 kts 112°
2026-05-06 23:01 39.48730 -103.42712 21268 ft 493 kts 112°
2026-05-06 23:02 39.47536 -103.38536 21549 ft 495 kts 112°
2026-05-06 23:02 39.46338 -103.34345 21828 ft 498 kts 112°
2026-05-06 23:02 39.45134 -103.30137 22082 ft 500 kts 112°
2026-05-06 23:02 39.43924 -103.25904 22350 ft 502 kts 112°
2026-05-06 23:03 39.42708 -103.21660 22592 ft 505 kts 113°
2026-05-06 23:03 39.41481 -103.17397 22839 ft 507 kts 113°
2026-05-06 23:03 39.40248 -103.13129 23103 ft 507 kts 113°
2026-05-06 23:03 39.39029 -103.08917 23164 ft 507 kts 113°
2026-05-06 23:04 39.37794 -103.04647 23175 ft 508 kts 113°
2026-05-06 23:04 39.36555 -103.00372 23522 ft 508 kts 113°
2026-05-06 23:04 39.35370 -102.96076 23925 ft 509 kts 109°
2026-05-06 23:04 39.34581 -102.91609 24270 ft 512 kts 101°
2026-05-06 23:05 39.34041 -102.87065 24637 ft 512 kts 101°
2026-05-06 23:05 39.33495 -102.82522 25007 ft 512 kts 101°
2026-05-06 23:05 39.32941 -102.77980 25377 ft 512 kts 101°
2026-05-06 23:05 39.32389 -102.73503 25750 ft 511 kts 101°
2026-05-06 23:06 39.31829 -102.68968 26133 ft 511 kts 101°
2026-05-06 23:06 39.31269 -102.64442 26535 ft 511 kts 101°
2026-05-06 23:06 39.30708 -102.59917 26932 ft 510 kts 101°
2026-05-06 23:06 39.30148 -102.55396 27321 ft 510 kts 101°
2026-05-06 23:07 39.29587 -102.50880 27707 ft 509 kts 101°
2026-05-06 23:07 39.29022 -102.46367 28106 ft 509 kts 102°
2026-05-06 23:07 39.28454 -102.41860 28492 ft 509 kts 102°
2026-05-06 23:07 39.27887 -102.37359 28890 ft 508 kts 102°
2026-05-06 23:08 39.27331 -102.32924 29290 ft 507 kts 102°
2026-05-06 23:08 39.26764 -102.28435 29666 ft 507 kts 102°
2026-05-06 23:08 39.26188 -102.23941 30040 ft 507 kts 102°
2026-05-06 23:08 39.25613 -102.19457 30428 ft 506 kts 102°
2026-05-06 23:09 39.25042 -102.14975 30814 ft 506 kts 102°
2026-05-06 23:09 39.24471 -102.10499 31195 ft 506 kts 102°
2026-05-06 23:09 39.23897 -102.06020 31550 ft 506 kts 102°
2026-05-06 23:09 39.23321 -102.01546 31910 ft 506 kts 102°
2026-05-06 23:10 39.22750 -101.97132 32286 ft 505 kts 103°
2026-05-06 23:10 39.22168 -101.92652 32586 ft 508 kts 103°
2026-05-06 23:10 39.21582 -101.88158 32905 ft 508 kts 103°
2026-05-06 23:10 39.20992 -101.83672 33251 ft 508 kts 103°
2026-05-06 23:11 39.20402 -101.79171 33592 ft 509 kts 103°
2026-05-06 23:11 39.19812 -101.74676 33934 ft 509 kts 103°
2026-05-06 23:11 39.19220 -101.70180 34281 ft 509 kts 104°
2026-05-06 23:11 39.18627 -101.65684 34611 ft 509 kts 104°
2026-05-06 23:12 39.18039 -101.61246 34904 ft 510 kts 104°
2026-05-06 23:12 39.17440 -101.56739 35206 ft 510 kts 104°
2026-05-06 23:12 39.16841 -101.52239 35509 ft 510 kts 104°
2026-05-06 23:12 39.16238 -101.47735 35797 ft 510 kts 104°
2026-05-06 23:13 39.15632 -101.43227 36069 ft 511 kts 104°
2026-05-06 23:13 39.15023 -101.38718 36329 ft 511 kts 104°
2026-05-06 23:13 39.14414 -101.34213 36564 ft 512 kts 104°
2026-05-06 23:13 39.13800 -101.29694 36813 ft 512 kts 104°
2026-05-06 23:14 39.13195 -101.25242 37081 ft 511 kts 104°
2026-05-06 23:14 39.11957 -101.16182 37177 ft 518 kts 104°
2026-05-06 23:15 39.10692 -101.07022 37174 ft 522 kts 104°
2026-05-06 23:15 39.09423 -100.97810 37174 ft 523 kts 104°
2026-05-06 23:16 39.08158 -100.88637 37176 ft 524 kts 104°
2026-05-06 23:16 39.06873 -100.79401 37174 ft 524 kts 105°
2026-05-06 23:17 39.05581 -100.70154 37176 ft 525 kts 105°
2026-05-06 23:17 39.04286 -100.60897 37174 ft 526 kts 105°
2026-05-06 23:18 39.02982 -100.51633 37178 ft 526 kts 105°
2026-05-06 23:18 39.01677 -100.42427 37177 ft 527 kts 105°
2026-05-06 23:19 39.00352 -100.33146 37185 ft 528 kts 105°
2026-05-06 23:19 38.99019 -100.23863 37165 ft 529 kts 105°
2026-05-06 23:20 38.97672 -100.14549 37154 ft 531 kts 105°
2026-05-06 23:20 38.96327 -100.05260 37155 ft 533 kts 105°
2026-05-06 23:21 38.94968 -99.95877 37157 ft 535 kts 106°
2026-05-06 23:21 38.93583 -99.86465 37153 ft 537 kts 107°
2026-05-06 23:22 38.92181 -99.77011 37152 ft 539 kts 107°
2026-05-06 23:22 38.90784 -99.67606 37158 ft 541 kts 107°
2026-05-06 23:23 38.89368 -99.58108 37167 ft 542 kts 107°
2026-05-06 23:23 38.87940 -99.48604 37170 ft 543 kts 107°
2026-05-06 23:24 38.86493 -99.39080 37179 ft 544 kts 107°
2026-05-06 23:24 38.85264 -99.29543 37180 ft 551 kts 98°
2026-05-06 23:25 38.85762 -99.19670 37171 ft 560 kts 83°
2026-05-06 23:25 38.87009 -99.09802 37173 ft 561 kts 83°
2026-05-06 23:26 38.88219 -98.99912 37176 ft 561 kts 84°
2026-05-06 23:26 38.89405 -98.90071 37171 ft 562 kts 84°
2026-05-06 23:27 38.90604 -98.80143 37168 ft 563 kts 84°
2026-05-06 23:27 38.91804 -98.70199 37168 ft 564 kts 84°
2026-05-06 23:28 38.93003 -98.60229 37167 ft 565 kts 84°
2026-05-06 23:28 38.94184 -98.50253 37179 ft 565 kts 84°
2026-05-06 23:29 38.95349 -98.40337 37172 ft 566 kts 84°
2026-05-06 23:29 38.96515 -98.30342 37184 ft 566 kts 84°
2026-05-06 23:30 38.97677 -98.20336 37190 ft 566 kts 84°
2026-05-06 23:30 38.98833 -98.10327 37192 ft 566 kts 84°
2026-05-06 23:31 38.99960 -98.00381 37190 ft 566 kts 85°
2026-05-06 23:31 39.00827 -97.90321 37167 ft 566 kts 89°
2026-05-06 23:32 39.01387 -97.80215 37162 ft 567 kts 90°
2026-05-06 23:32 39.01922 -97.70097 37157 ft 568 kts 89°
2026-05-06 23:33 39.02549 -97.60020 37156 ft 570 kts 89°
2026-05-06 23:33 39.03225 -97.49864 37155 ft 570 kts 89°
2026-05-06 23:34 39.03876 -97.39693 37157 ft 571 kts 89°
2026-05-06 23:34 39.04390 -97.31228 37156 ft 571 kts 89°
2026-05-06 23:35 39.05086 -97.19387 37156 ft 571 kts 90°
2026-05-06 23:35 39.05680 -97.09181 37152 ft 572 kts 90°
2026-05-06 23:36 39.06179 -97.00689 37150 ft 573 kts 90°
2026-05-06 23:36 39.06774 -96.90479 37145 ft 573 kts 90°
2026-05-06 23:37 39.07439 -96.78601 37140 ft 573 kts 90°
2026-05-06 23:37 39.08009 -96.68374 37136 ft 573 kts 90°
2026-05-06 23:38 39.08480 -96.59867 37135 ft 574 kts 90°
2026-05-06 23:38 39.09031 -96.49623 37135 ft 574 kts 90°
2026-05-06 23:39 39.09571 -96.39366 37137 ft 574 kts 90°
2026-05-06 23:39 39.10102 -96.29106 37134 ft 574 kts 90°
2026-05-06 23:40 39.10630 -96.18913 37132 ft 574 kts 90°
2026-05-06 23:40 39.11146 -96.08648 37129 ft 575 kts 90°
2026-05-06 23:41 39.11653 -95.98375 37132 ft 575 kts 90°
2026-05-06 23:41 39.12158 -95.88088 37126 ft 576 kts 91°
2026-05-06 23:42 39.12648 -95.77854 37123 ft 577 kts 91°
2026-05-06 23:42 39.13129 -95.67541 37127 ft 577 kts 91°
2026-05-06 23:43 39.13603 -95.57214 37127 ft 578 kts 91°
2026-05-06 23:43 39.14656 -95.46912 37128 ft 582 kts 84°
2026-05-06 23:44 39.15855 -95.36673 37128 ft 582 kts 85°
2026-05-06 23:44 39.17047 -95.26344 37125 ft 583 kts 85°
2026-05-06 23:45 39.18237 -95.16004 37123 ft 584 kts 85°
2026-05-06 23:45 39.19421 -95.05650 37124 ft 584 kts 85°
2026-05-06 23:46 39.20582 -94.95343 37125 ft 585 kts 85°
2026-05-06 23:46 39.21751 -94.84949 37120 ft 586 kts 85°
2026-05-06 23:47 39.22913 -94.74538 37121 ft 587 kts 85°
2026-05-06 23:47 39.24063 -94.64121 37120 ft 587 kts 85°
2026-05-06 23:48 39.25197 -94.53764 37124 ft 587 kts 85°
2026-05-06 23:48 39.26338 -94.43329 37125 ft 587 kts 85°
2026-05-06 23:49 39.27459 -94.32889 37132 ft 587 kts 85°
2026-05-06 23:49 39.28577 -94.22444 37138 ft 587 kts 85°
2026-05-06 23:50 39.29675 -94.12066 37141 ft 587 kts 85°
2026-05-06 23:50 39.31306 -93.96402 37137 ft 587 kts 85°
2026-05-06 23:51 39.32387 -93.85951 37133 ft 587 kts 85°
2026-05-06 23:51 39.33461 -93.75487 37133 ft 588 kts 86°
2026-05-06 23:52 39.34520 -93.65080 37139 ft 589 kts 86°
2026-05-06 23:52 39.35574 -93.54593 37142 ft 589 kts 86°
2026-05-06 23:53 39.36614 -93.44090 37140 ft 589 kts 86°
2026-05-06 23:53 39.37650 -93.33579 37134 ft 590 kts 86°
2026-05-06 23:54 39.38685 -93.23128 37131 ft 590 kts 86°
2026-05-06 23:54 39.39713 -93.12598 37129 ft 591 kts 86°
2026-05-06 23:55 39.40723 -93.02047 37129 ft 591 kts 86°
2026-05-06 23:55 39.41721 -92.91492 37125 ft 591 kts 86°
2026-05-06 23:56 39.42704 -92.81005 37116 ft 592 kts 86°
2026-05-06 23:56 39.43687 -92.70434 37110 ft 592 kts 86°
2026-05-06 23:57 39.44665 -92.59852 37112 ft 593 kts 86°
2026-05-06 23:57 39.45631 -92.49246 37119 ft 594 kts 86°
2026-05-06 23:58 39.46588 -92.38701 37120 ft 594 kts 87°
2026-05-06 23:58 39.47546 -92.28082 37125 ft 594 kts 87°
2026-05-06 23:59 39.48488 -92.17453 37130 ft 594 kts 87°
2026-05-06 23:59 39.49412 -92.06812 37127 ft 595 kts 87°
2026-05-07 00:00 39.50597 -91.96202 37128 ft 597 kts 80°
2026-05-07 00:00 39.52250 -91.85733 37121 ft 598 kts 81°
2026-05-07 00:01 39.53885 -91.75175 37120 ft 598 kts 81°
2026-05-07 00:01 39.55507 -91.64603 37121 ft 598 kts 81°
2026-05-07 00:02 39.57123 -91.54021 37119 ft 599 kts 81°
2026-05-07 00:02 39.58726 -91.43493 37121 ft 599 kts 81°
2026-05-07 00:03 39.60335 -91.32885 37114 ft 600 kts 81°
2026-05-07 00:03 39.61929 -91.22254 37112 ft 601 kts 81°
2026-05-07 00:04 39.63515 -91.11614 37114 ft 601 kts 81°
2026-05-07 00:04 39.65083 -91.01038 37116 ft 601 kts 81°
2026-05-07 00:05 39.66654 -90.90383 37115 ft 601 kts 81°
2026-05-07 00:05 39.68225 -90.79711 37116 ft 602 kts 81°
2026-05-07 00:06 39.69779 -90.69022 37117 ft 603 kts 81°
2026-05-07 00:06 39.71311 -90.58386 37118 ft 603 kts 81°
2026-05-07 00:07 39.72845 -90.47668 37113 ft 604 kts 81°
2026-05-07 00:07 39.74375 -90.36938 37112 ft 604 kts 81°
2026-05-07 00:08 39.75904 -90.26204 37105 ft 604 kts 81°
2026-05-07 00:08 39.77407 -90.15540 37104 ft 604 kts 82°
2026-05-07 00:09 39.78901 -90.04792 37103 ft 604 kts 82°
2026-05-07 00:09 39.80383 -89.94029 37106 ft 605 kts 82°
2026-05-07 00:10 39.81865 -89.83260 37105 ft 605 kts 82°
2026-05-07 00:10 39.83329 -89.72561 37101 ft 605 kts 82°
2026-05-07 00:11 39.84123 -89.61733 37098 ft 599 kts 93°
2026-05-07 00:11 39.84349 -89.50891 37095 ft 600 kts 93°
2026-05-07 00:12 39.84575 -89.40040 37090 ft 600 kts 93°
2026-05-07 00:12 39.84796 -89.29186 37089 ft 600 kts 93°
2026-05-07 00:13 39.85000 -89.18402 37090 ft 600 kts 93°
2026-05-07 00:13 39.85187 -89.07543 37095 ft 600 kts 94°
2026-05-07 00:14 39.85374 -88.96672 37081 ft 601 kts 94°
2026-05-07 00:14 39.85552 -88.85798 37082 ft 601 kts 94°
2026-05-07 00:15 39.85713 -88.74993 37080 ft 601 kts 94°
2026-05-07 00:15 39.85867 -88.64103 37078 ft 602 kts 94°
2026-05-07 00:16 39.86021 -88.53207 37078 ft 603 kts 94°
2026-05-07 00:16 39.86155 -88.42298 37080 ft 603 kts 94°
2026-05-07 00:17 39.86274 -88.31454 37082 ft 604 kts 94°
2026-05-07 00:17 39.86389 -88.20525 37084 ft 604 kts 94°
2026-05-07 00:18 39.86490 -88.09593 37085 ft 604 kts 94°
2026-05-07 00:18 39.86585 -87.98653 37085 ft 604 kts 94°
2026-05-07 00:19 39.86673 -87.87789 37084 ft 604 kts 95°
2026-05-07 00:19 39.86745 -87.76848 37080 ft 604 kts 95°
2026-05-07 00:20 39.86816 -87.65914 37075 ft 605 kts 95°
2026-05-07 00:20 39.86874 -87.54980 37080 ft 604 kts 95°
2026-05-07 00:21 39.86907 -87.44121 37077 ft 604 kts 95°
2026-05-07 00:21 39.86940 -87.33182 37078 ft 604 kts 95°
2026-05-07 00:22 39.86969 -87.22253 37077 ft 604 kts 95°
2026-05-07 00:22 39.86983 -87.11322 37070 ft 604 kts 95°
2026-05-07 00:23 39.86978 -87.00463 37067 ft 604 kts 95°
2026-05-07 00:23 39.86973 -86.89533 37065 ft 604 kts 95°
2026-05-07 00:24 39.86959 -86.78593 37065 ft 604 kts 94°
2026-05-07 00:24 39.86935 -86.67654 37064 ft 604 kts 95°
2026-05-07 00:25 39.86896 -86.56716 37064 ft 605 kts 95°
2026-05-07 00:25 39.86842 -86.45769 37064 ft 605 kts 95°
2026-05-07 00:26 39.87127 -86.34886 37055 ft 609 kts 84°
2026-05-07 00:26 39.88949 -86.24089 37048 ft 611 kts 76°
2026-05-07 00:27 39.91008 -86.13347 37052 ft 612 kts 76°
2026-05-07 00:27 39.93053 -86.02582 37054 ft 612 kts 76°
2026-05-07 00:28 39.95072 -85.91888 37057 ft 612 kts 76°
2026-05-07 00:28 39.97102 -85.81110 37053 ft 612 kts 76°
2026-05-07 00:29 39.99114 -85.70323 37049 ft 612 kts 76°
2026-05-07 00:30 40.03111 -85.48820 37051 ft 612 kts 76°
2026-05-07 00:30 40.05098 -85.38030 37049 ft 611 kts 77°
2026-05-07 00:31 40.07077 -85.27240 37051 ft 611 kts 76°
2026-05-07 00:31 40.09036 -85.16458 37045 ft 610 kts 77°
2026-05-07 00:32 40.10967 -85.05752 37045 ft 609 kts 77°
2026-05-07 00:32 40.12904 -84.94984 37045 ft 609 kts 77°
2026-05-07 00:33 40.14834 -84.84215 37042 ft 608 kts 77°
2026-05-07 00:33 40.16753 -84.73445 37041 ft 608 kts 77°
2026-05-07 00:34 40.18661 -84.62678 37041 ft 608 kts 77°
2026-05-07 00:34 40.20548 -84.51974 37046 ft 608 kts 77°
2026-05-07 00:35 40.22426 -84.41183 37035 ft 608 kts 77°
2026-05-07 00:35 40.24297 -84.30378 37038 ft 609 kts 77°
2026-05-07 00:36 40.26150 -84.19637 37036 ft 609 kts 77°
2026-05-07 00:36 40.28232 -84.08901 37039 ft 608 kts 68°
2026-05-07 00:37 40.31895 -83.99037 37042 ft 597 kts 50°
2026-05-07 00:37 40.36728 -83.90289 37046 ft 592 kts 46°
2026-05-07 00:38 40.41636 -83.81605 37049 ft 592 kts 46°
2026-05-07 00:38 40.46504 -83.72968 37051 ft 592 kts 46°
2026-05-07 00:39 40.51402 -83.64265 37047 ft 592 kts 46°
2026-05-07 00:39 40.56291 -83.55554 37031 ft 592 kts 46°
2026-05-07 00:40 40.61173 -83.46843 37026 ft 591 kts 46°
2026-05-07 00:40 40.66046 -83.38122 37025 ft 591 kts 46°
2026-05-07 00:41 40.70866 -83.29447 37025 ft 590 kts 46°
2026-05-07 00:41 40.75829 -83.20855 37030 ft 588 kts 44°
2026-05-07 00:42 40.80885 -83.12401 37032 ft 587 kts 44°
2026-05-07 00:42 40.85929 -83.03926 37034 ft 587 kts 44°
2026-05-07 00:43 40.90912 -82.95395 37033 ft 587 kts 45°
2026-05-07 00:43 40.95870 -82.86829 37033 ft 586 kts 45°
2026-05-07 00:44 41.00788 -82.78324 37033 ft 585 kts 45°
2026-05-07 00:44 41.05747 -82.69780 37035 ft 585 kts 45°
2026-05-07 00:45 41.10695 -82.61220 37034 ft 585 kts 45°
2026-05-07 00:45 41.15325 -82.52292 37030 ft 594 kts 57°
2026-05-07 00:46 41.19233 -82.42629 37042 ft 594 kts 57°
2026-05-07 00:46 41.23113 -82.33034 37036 ft 594 kts 57°
2026-05-07 00:47 41.27001 -82.23360 37039 ft 594 kts 57°
2026-05-07 00:47 41.30882 -82.13670 37041 ft 593 kts 57°
2026-05-07 00:48 41.34730 -82.03969 37044 ft 593 kts 59°
2026-05-07 00:48 41.38151 -81.94029 37041 ft 596 kts 64°
2026-05-07 00:49 41.41236 -81.83781 37023 ft 596 kts 65°
2026-05-07 00:49 41.44331 -81.73543 37022 ft 596 kts 64°
2026-05-07 00:50 41.47555 -81.63377 37028 ft 595 kts 63°
2026-05-07 00:50 41.48944 -81.58169 37024 ft 598 kts 76°
2026-05-07 00:50 41.49526 -81.52694 37029 ft 596 kts 90°
2026-05-07 00:51 41.49758 -81.41652 37035 ft 596 kts 91°
2026-05-07 00:51 41.49953 -81.30675 37043 ft 596 kts 91°
2026-05-07 00:52 41.50153 -81.19620 37031 ft 596 kts 91°
2026-05-07 00:52 41.50352 -81.08557 37039 ft 597 kts 91°
2026-05-07 00:53 41.50522 -80.97494 37035 ft 597 kts 91°
2026-05-07 00:53 41.50674 -80.86429 37038 ft 597 kts 91°
2026-05-07 00:54 41.50829 -80.75432 37034 ft 597 kts 91°
2026-05-07 00:54 41.50980 -80.64368 37030 ft 597 kts 91°
2026-05-07 00:55 41.51122 -80.53293 37031 ft 597 kts 91°
2026-05-07 00:55 41.51247 -80.42229 37033 ft 596 kts 91°
2026-05-07 00:56 41.51353 -80.31167 37027 ft 596 kts 91°
2026-05-07 00:56 41.51452 -80.20185 37021 ft 596 kts 91°
2026-05-07 00:57 41.51545 -80.09129 37022 ft 596 kts 91°
2026-05-07 00:57 41.51630 -79.98085 37023 ft 595 kts 91°
2026-05-07 00:58 41.51710 -79.87053 37026 ft 595 kts 91°
2026-05-07 00:58 41.51757 -79.76091 37030 ft 595 kts 91°
2026-05-07 00:59 41.51828 -79.59545 37026 ft 594 kts 91°
2026-05-07 01:00 41.51866 -79.48527 37020 ft 594 kts 92°
2026-05-07 01:00 41.51889 -79.37505 37011 ft 594 kts 92°
2026-05-07 01:01 41.51905 -79.26493 37012 ft 594 kts 91°
2026-05-07 01:01 41.51913 -79.15468 37006 ft 595 kts 91°
2026-05-07 01:02 41.51907 -79.04505 36999 ft 594 kts 92°
2026-05-07 01:02 41.51882 -78.93484 36996 ft 594 kts 92°
2026-05-07 01:03 41.51854 -78.82465 36992 ft 593 kts 92°
2026-05-07 01:03 41.51825 -78.71457 36988 ft 593 kts 92°
2026-05-07 01:04 41.51776 -78.60531 36990 ft 592 kts 92°
2026-05-07 01:04 41.51713 -78.49555 37004 ft 591 kts 92°
2026-05-07 01:05 41.51647 -78.38587 37003 ft 591 kts 92°
2026-05-07 01:05 41.51566 -78.27632 37006 ft 590 kts 92°
2026-05-07 01:06 41.51476 -78.16690 37006 ft 589 kts 92°
2026-05-07 01:06 41.51364 -78.05839 37006 ft 589 kts 92°
2026-05-07 01:07 41.50961 -77.94958 37001 ft 585 kts 102°
2026-05-07 01:07 41.49503 -77.84315 37000 ft 583 kts 105°
2026-05-07 01:08 41.47989 -77.73696 36992 ft 582 kts 105°
2026-05-07 01:08 41.46474 -77.63157 36985 ft 582 kts 104°
2026-05-07 01:09 41.44953 -77.52562 36981 ft 582 kts 105°
2026-05-07 01:09 41.43425 -77.41973 36976 ft 582 kts 105°
2026-05-07 01:10 41.41883 -77.31379 36970 ft 582 kts 105°
2026-05-07 01:10 41.40325 -77.20801 36990 ft 582 kts 105°
2026-05-07 01:11 41.38777 -77.10316 36985 ft 581 kts 105°
2026-05-07 01:11 41.37213 -76.99781 36978 ft 580 kts 105°
2026-05-07 01:12 41.35632 -76.89264 36800 ft 578 kts 105°
2026-05-07 01:12 41.34839 -76.84027 36237 ft 579 kts 105°
2026-05-07 01:12 41.34005 -76.78751 35280 ft 582 kts 109°
2026-05-07 01:12 41.32836 -76.73632 34504 ft 576 kts 115°
2026-05-07 01:13 41.31503 -76.68596 33627 ft 579 kts 115°
2026-05-07 01:13 41.30167 -76.63596 32633 ft 583 kts 116°
2026-05-07 01:13 41.28798 -76.58512 31617 ft 585 kts 116°
2026-05-07 01:13 41.27430 -76.53431 30626 ft 583 kts 116°
2026-05-07 01:14 41.26065 -76.48359 29546 ft 583 kts 116°
2026-05-07 01:14 41.24702 -76.43299 28400 ft 581 kts 116°
2026-05-07 01:14 41.23342 -76.38253 27135 ft 578 kts 115°
2026-05-07 01:14 41.22002 -76.33273 25268 ft 570 kts 115°
2026-05-07 01:15 41.20685 -76.28386 24030 ft 552 kts 115°
2026-05-07 01:15 41.19414 -76.23672 22937 ft 532 kts 115°
2026-05-07 01:15 41.18187 -76.19141 21988 ft 513 kts 115°
2026-05-07 01:15 41.16977 -76.14691 21010 ft 512 kts 115°
2026-05-07 01:16 41.15768 -76.10276 20028 ft 509 kts 115°
2026-05-07 01:16 41.14556 -76.05870 19329 ft 507 kts 115°
2026-05-07 01:16 41.13362 -76.01547 19068 ft 505 kts 115°
2026-05-07 01:16 41.12155 -75.97181 18916 ft 502 kts 114°
2026-05-07 01:17 41.10960 -75.92848 18952 ft 500 kts 114°
2026-05-07 01:17 41.09770 -75.88521 18951 ft 500 kts 114°
2026-05-07 01:17 41.08576 -75.84187 18950 ft 500 kts 114°
2026-05-07 01:17 41.07391 -75.79889 18206 ft 495 kts 114°
2026-05-07 01:18 41.06213 -75.75631 17220 ft 490 kts 114°
2026-05-07 01:18 41.05049 -75.71425 16331 ft 483 kts 114°
2026-05-07 01:18 41.03899 -75.67276 15436 ft 477 kts 114°
2026-05-07 01:18 41.02777 -75.63243 14601 ft 470 kts 115°
2026-05-07 01:19 41.01651 -75.59199 13777 ft 465 kts 115°
2026-05-07 01:19 41.00546 -75.55227 13269 ft 454 kts 115°
2026-05-07 01:19 40.99455 -75.51313 13064 ft 452 kts 115°
2026-05-07 01:19 40.98371 -75.47436 13066 ft 441 kts 115°
2026-05-07 01:20 40.97342 -75.43734 13070 ft 417 kts 115°
2026-05-07 01:20 40.96369 -75.40232 13065 ft 395 kts 115°
2026-05-07 01:20 40.95440 -75.36906 13062 ft 376 kts 116°
2026-05-07 01:20 40.94550 -75.33744 13057 ft 359 kts 116°
2026-05-07 01:21 40.93692 -75.30708 13051 ft 347 kts 117°
2026-05-07 01:21 40.92842 -75.27727 13052 ft 345 kts 117°
2026-05-07 01:21 40.92006 -75.24802 13055 ft 345 kts 117°
2026-05-07 01:21 40.91162 -75.21829 13053 ft 345 kts 117°
2026-05-07 01:22 40.90319 -75.18861 13054 ft 345 kts 117°
2026-05-07 01:22 40.89472 -75.15892 13051 ft 345 kts 116°
2026-05-07 01:22 40.88628 -75.12925 13053 ft 345 kts 116°
2026-05-07 01:22 40.87786 -75.09958 13054 ft 345 kts 116°
2026-05-07 01:23 40.86947 -75.06993 13049 ft 344 kts 116°
2026-05-07 01:23 40.86110 -75.04032 13052 ft 344 kts 116°
2026-05-07 01:23 40.85272 -75.01069 13054 ft 345 kts 116°
2026-05-07 01:23 40.84442 -74.98145 13055 ft 345 kts 116°
2026-05-07 01:24 40.83600 -74.95184 13048 ft 344 kts 116°
2026-05-07 01:24 40.82848 -74.92172 13048 ft 349 kts 107°
2026-05-07 01:24 40.82588 -74.88961 13040 ft 354 kts 96°
2026-05-07 01:24 40.82435 -74.85684 13034 ft 368 kts 102°
2026-05-07 01:25 40.81866 -74.82280 13039 ft 395 kts 109°
2026-05-07 01:25 40.81115 -74.78658 13041 ft 422 kts 110°
2026-05-07 01:25 40.80305 -74.74846 12756 ft 436 kts 110°
2026-05-07 01:25 40.79475 -74.70967 11749 ft 440 kts 110°
2026-05-07 01:26 40.78657 -74.67139 10438 ft 429 kts 109°
2026-05-07 01:26 40.77840 -74.63446 9733 ft 404 kts 109°
2026-05-07 01:26 40.77062 -74.60033 9396 ft 373 kts 109°
2026-05-07 01:26 40.76510 -74.56831 9226 ft 346 kts 94°
2026-05-07 01:27 40.76789 -74.53790 8969 ft 327 kts 70°
2026-05-07 01:27 40.77853 -74.51291 8519 ft 312 kts 45°
2026-05-07 01:27 40.79537 -74.49605 7940 ft 300 kts 22°
2026-05-07 01:27 40.81429 -74.48484 7291 ft 296 kts 18°
2026-05-07 01:28 40.83325 -74.47449 6683 ft 294 kts 18°
2026-05-07 01:28 40.85144 -74.46232 6091 ft 293 kts 26°
2026-05-07 01:28 40.86891 -74.44846 5703 ft 293 kts 27°
2026-05-07 01:28 40.88624 -74.43452 5394 ft 290 kts 28°
2026-05-07 01:29 40.90349 -74.42072 5078 ft 289 kts 27°
2026-05-07 01:29 40.92057 -74.40712 5021 ft 288 kts 27°
2026-05-07 01:29 40.93688 -74.39143 5019 ft 293 kts 45°
2026-05-07 01:29 40.94722 -74.36823 5025 ft 296 kts 72°
2026-05-07 01:30 40.95264 -74.34233 5019 ft 296 kts 77°
2026-05-07 01:30 40.95743 -74.31580 5016 ft 296 kts 77°
2026-05-07 01:30 40.96208 -74.28927 5018 ft 295 kts 78°
2026-05-07 01:30 40.96489 -74.26244 4942 ft 294 kts 95°
2026-05-07 01:31 40.96148 -74.23620 4602 ft 288 kts 106°
2026-05-07 01:31 40.95664 -74.21046 4269 ft 287 kts 108°
2026-05-07 01:31 40.95185 -74.18499 4037 ft 283 kts 108°
2026-05-07 01:31 40.94714 -74.15956 3997 ft 286 kts 107°
2026-05-07 01:32 40.94239 -74.13413 3995 ft 282 kts 107°
2026-05-07 01:32 40.93777 -74.10956 4003 ft 267 kts 108°
2026-05-07 01:32 40.93346 -74.08643 4005 ft 251 kts 108°
2026-05-07 01:32 40.92943 -74.06458 3947 ft 245 kts 107°
2026-05-07 01:33 40.92549 -74.04284 3649 ft 242 kts 107°
2026-05-07 01:33 40.91931 -74.02281 3324 ft 230 kts 135°
2026-05-07 01:33 40.90708 -74.01091 3057 ft 211 kts 168°
2026-05-07 01:33 40.89286 -74.00656 3004 ft 210 kts 176°
2026-05-07 01:34 40.87837 -74.00360 2997 ft 209 kts 182°
2026-05-07 01:34 40.86488 -74.00746 2882 ft 195 kts 215°
2026-05-07 01:34 40.85586 -74.02045 2554 ft 193 kts 235°
2026-05-07 01:34 40.84866 -74.03521 2499 ft 188 kts 237°
2026-05-07 01:35 40.84177 -74.04986 2496 ft 184 kts 237°
2026-05-07 01:35 40.83525 -74.06387 2497 ft 177 kts 237°
2026-05-07 01:35 40.82691 -74.07525 2471 ft 176 kts 208°
2026-05-07 01:35 40.81622 -74.08260 2412 ft 173 kts 212°
2026-05-07 01:36 40.80599 -74.09103 2477 ft 174 kts 212°
2026-05-07 01:36 40.79574 -74.09825 2499 ft 157 kts 208°
2026-05-07 01:36 40.78595 -74.10389 2225 ft 150 kts 206°
2026-05-07 01:36 40.77651 -74.10979 1856 ft 151 kts 208°
2026-05-07 01:37 40.76718 -74.11588 1575 ft 144 kts 207°
2026-05-07 01:37 40.75826 -74.12065 1465 ft 136 kts 208°
2026-05-07 01:37 40.74984 -74.12581 1260 ft 131 kts 215°
2026-05-07 01:37 40.74199 -74.13197 1110 ft 133 kts 218°
2026-05-07 01:38 40.73372 -74.13745 823 ft 132 kts 212°
2026-05-07 01:38 40.72553 -74.14282 680 ft 132 kts 215°
2026-05-07 01:38 40.71741 -74.14839 475 ft 131 kts 218°
2026-05-07 01:38 40.70901 -74.15383 300 ft 138 kts 214°
2026-05-07 01:39 40.70068 -74.15945 85 ft 133 kts 213°
2026-05-07 01:39 40.69259 -74.16480 26 ft 120 kts 210°
2026-05-07 01:39 40.68656 -74.16859 22 ft 77 kts 206°
2026-05-07 01:39 40.68347 -74.17071 23 ft 33 kts 218°
2026-05-07 01:40 40.68247 -74.17206 22 ft 8 kts 236°
2026-05-07 01:40 40.68237 -74.17227 23 ft 0 kts 236°
2026-05-07 01:40 40.68230 -74.17239 24 ft 3 kts 236°
2026-05-07 01:40 40.68215 -74.17268 24 ft 5 kts 236°
2026-05-07 01:41 40.68190 -74.17316 23 ft 8 kts 236°
2026-05-07 01:41 40.68144 -74.17431 24 ft 18 kts 271°
2026-05-07 01:41 40.68197 -74.17585 23 ft 19 kts 293°
2026-05-07 01:41 40.68249 -74.17673 23 ft 10 kts 341°
2026-05-07 01:42 40.68303 -74.17724 22 ft 12 kts 300°
2026-05-07 01:42 40.68345 -74.17835 22 ft 15 kts 294°
2026-05-07 01:42 40.68393 -74.17970 22 ft 18 kts 296°
2026-05-07 01:42 40.68452 -74.18120 24 ft 8 kts 304°
2026-05-07 01:43 40.68455 -74.18124 22 ft 0 kts 305°
2026-05-07 01:43 40.68497 -74.18253 22 ft 22 kts 274°
2026-05-07 01:44 40.68512 -74.18436 22 ft 16 kts 276°
2026-05-07 01:44 40.68544 -74.18562 23 ft 12 kts 308°
2026-05-07 01:44 40.68544 -74.18640 22 ft 6 kts 271°
2026-05-07 01:44 40.68545 -74.18661 22 ft 4 kts 271°
2026-05-07 01:45 40.68545 -74.18682 22 ft 0 kts 271°